Weather in Negotka

Russia / Tomsk District     59°43′36″N   80°38′44″E
temp.,
°C
wind,
m/s
gust,
m/s
humid.,
%
clouds,
%
prec.,
mm/h
press.,
hPa
HPBL,
m
10 may, mon
mon1001:00+4ene2476100 0.0 102790
04:00+3ene2388100 0.0 102761
07:00+3ene258461 0.0 1028154
10:00+8ne345613 0.0 1029965
13:00+9nne445090 0.0 10281509
16:00+11nne354493 0.0 10281662
19:00+10nne464991 0.0 10271497
22:00+7ene376316 0.0 1028338
11 may, tue
tue1101:00+4ne27796 0.0 1028190
04:00+2nne26925 0.0 1027144
07:00+3nne27865 0.0 1028283
10:00+8ne455664 0.0 10271211
13:00+11ne45431 0.0 10261464
16:00+13ne34370 0.0 10251680
19:00+13ne23368 0.0 10251886
22:00+8ese26605 0.0 1025155
12 may, wed
wed1201:00+5se22724 0.0 102539
04:00+4s22760 0.0 102320
07:00+5s24720 0.0 1023133
10:00+11ssw344798 0.0 1021564
13:00+15sw3436100 0.0 10191107
16:00+16sw3438100 0.0 10181520
19:00+12wnw4769100 0.0 1019589
22:00+9nw2489100 0.1 1019413
13 may, thu
thu1301:00+7nnw3689100 0.1 1019485
04:00+6nnw3791100 0.6 1019403
07:00+6nnw3690100 0.8 1020396
10:00+7nnw358099 0.0 1021461
13:00+11nne1354100 0.0 1019907
16:00+14nw3432100 0.0 10171913
19:00+13wnw3542100 0.0 10171675
22:00+9wnw2666100 0.2 1016353
14 may, fri
fri1401:00+8wnw41086100 0.6 10141128
04:00+6nnw6128099 0.2 10151094
07:00+4nnw612615 0.3 10181263
10:00+5nnw610435 0.0 10201537
13:00+8nnw6103464 0.0 10202035
16:00+10nnw5930100 0.0 10202211
19:00+9nw4733100 0.0 10191897
22:00+7wnw2445100 0.0 1019150